Location: Biltmore Gardens
(41.6070°N, 83.4666°W)
Time: 12:22:54
(UTC+00:00)

Explorer 7 - Visible Passes

Search period start: 18 April 2021 00:00
Search period end: 28 April 2021 00:00
Orbit: 484 x 677 km, 50.3° (Epoch: 17 April)

Date Brightness Start Highest point End Pass type
(mag) Time Alt. Az. Time Alt. Az. Time Alt. Az.
18 Apr 7.9 01:08:31 10° S 01:11:46 24° SE 01:15:07 10° E visible
18 Apr 7.3 02:47:54 10° WSW 02:51:33 59° WNW 02:51:33 59° WNW visible
18 Apr 9.0 07:58:43 22° ESE 07:58:43 22° ESE 08:00:28 10° ESE visible
18 Apr 8.3 09:35:10 21° WSW 09:35:51 22° SW 09:39:31 10° S visible
19 Apr 7.2 01:12:20 10° SSW 01:16:03 39° SE 01:19:59 10° ENE visible
19 Apr 7.9 02:52:34 10° W 02:56:31 45° NNW 02:57:34 37° NNE visible
19 Apr 9.2 09:42:05 11° SSW 09:42:05 11° SSW 09:42:25 10° SSW visible
20 Apr 6.7 01:16:28 10° SW 01:20:24 64° SE 01:24:36 10° ENE visible
20 Apr 8.4 02:57:20 10° W 03:01:09 35° NNW 03:02:56 25° NNE visible
20 Apr 9.9 04:38:53 10° NW 04:39:16 12° NW 04:39:16 12° NW visible
21 Apr 6.8 01:20:52 10° WSW 01:24:50 83° NNW 01:29:05 10° ENE visible
21 Apr 8.7 03:02:09 10° WNW 03:05:49 29° NNW 03:07:49 20° NNE visible
21 Apr 9.8 04:43:30 10° NW 04:44:08 13° NW 04:44:08 13° NW visible
22 Apr 7.5 01:25:26 10° WSW 01:29:20 56° NNW 01:33:31 10° NE visible
22 Apr 8.9 03:06:58 10° WNW 03:10:31 26° N 03:12:23 20° NNE visible
22 Apr 9.8 04:48:02 10° NW 04:48:40 14° NW 04:48:40 14° NW visible
23 Apr 8.1 01:30:08 10° W 01:33:55 41° NNW 01:37:56 10° NE visible
23 Apr 8.9 03:11:44 10° WNW 03:15:14 25° N 03:16:44 21° NNE visible
23 Apr 9.8 04:52:29 10° NW 04:53:02 13° NW 04:53:02 13° NW visible
24 Apr 8.5 01:34:54 10° W 01:38:33 32° NNW 01:42:24 10° NE visible
24 Apr 8.8 03:16:24 10° NW 03:19:56 25° N 03:20:58 23° NNE visible
24 Apr 9.9 04:56:55 10° NW 04:57:16 12° NW 04:57:16 12° NW visible
25 Apr 8.7 01:39:43 10° WNW 01:43:13 27° N 01:46:53 10° NE visible
25 Apr 8.6 03:20:59 10° NW 03:24:38 28° N 03:25:09 27° NNE visible
25 Apr 10.0 05:01:20 10° NW 05:01:25 10° NW 05:01:25 10° NW visible
26 Apr 8.8 01:44:31 10° WNW 01:47:54 25° N 01:51:27 10° NE visible
26 Apr 8.4 03:25:29 10° NW 03:29:15 32° NNE 03:29:15 32° NNE visible
27 Apr 8.8 01:49:15 10° NW 01:52:36 24° N 01:56:07 10° ENE visible
27 Apr 8.2 03:29:55 10° NW 03:33:21 38° N 03:33:21 38° N visible
